| time (UTC) | temp F | wind direction | speed MPH | gust MPH | rain 1hr in | rain 24hr in | rain mn in | humidity % | barometer mb |
| 20260906100047 | 0 | 236 | 4.0 | 10.0 | 0.00 | 0.00 | 0.00 | 1007.5 | |
| 20260906094550 | 0 | 236 | 3.0 | 10.0 | 0.00 | 0.00 | 0.00 | 1007.5 | |
| 20260906093031 | 0 | 236 | 2.0 | 8.0 | 0.00 | 0.00 | 0.00 | 1007.5 | |
| 20260906091559 | 0 | 236 | 1.0 | 7.0 | 0.00 | 0.00 | 0.00 | 1007.6 | |
| 20260906091531 | 0 | 236 | 0.0 | 6.0 | 0.00 | 0.00 | 0.00 | 1007.6 | |
| 20260906090035 | 0 | 235 | 0.0 | 5.0 | 0.00 | 0.00 | 0.00 | 1007.8 | |
| 20260906084543 | 0 | 235 | 0.0 | 5.0 | 0.00 | 0.00 | 0.00 | 1008.1 | |
| 20260906083050 | 0 | 234 | 0.0 | 3.0 | 0.00 | 0.00 | 0.00 | 1008.5 | |
| 20260906081600 | 0 | 240 | 0.0 | 1.0 | 0.00 | 0.00 | 0.00 | 1008.6 | |
| 20260906080011 | 0 | 242 | 0.0 | 3.0 | 0.00 | 0.00 | 0.00 | 1008.8 | |
| 20260906074525 | 0 | 242 | 0.0 | 4.0 | 0.00 | 0.00 | 0.00 | 1009.0 | |
| 20260906073058 | 0 | 242 | 0.0 | 5.0 | 0.00 | 0.00 | 0.00 | 1009.1 | |
| 20260906071549 | 0 | 242 | 0.0 | 6.0 | 0.00 | 0.00 | 0.00 | 1009.3 | |
| 20260906070042 | 0 | 242 | 1.0 | 7.0 | 0.00 | 0.00 | 0.00 | 1009.3 | |
| 20260906064541 | 0 | 242 | 1.0 | 6.0 | 0.00 | 0.00 | 0.00 | 1009.2 | |
| 20260906063055 | 0 | 0.0 | 0.0 | 0.00 | 0.00 | 0.00 | 1009.2 | ||
| 20260906061539 | 0 | 0.0 | 0.0 | 0.00 | 0.00 | 0.00 | 1009.1 | ||
| 20260906060043 | 0 | 0.0 | 0.0 | 0.00 | 0.00 | 0.00 | 1009.1 | ||
| 20260906054543 | 0 | 0.0 | 0.0 | 0.00 | 0.00 | 0.00 | 1009.1 | ||
| 20260906051605 | 0 | 0.0 | 0.0 | 0.00 | 0.00 | 0.00 | 1009.2 | ||
| 20260906050056 | 0 | 0.0 | 0.0 | 0.00 | 0.00 | 0.00 | 1009.3 | ||
| 20260906044523 | 0 | 0.0 | 0.0 | 0.00 | 0.00 | 0.00 | 1009.3 | ||
| 20260906043035 | 0 | 0.0 | 0.0 | 0.00 | 0.00 | 0.00 | 1009.4 | ||
| 20260906040053 | 0 | 0.0 | 0.0 | 0.00 | 0.00 | 0.00 | 1009.6 | ||
| 20260906033024 | 0 | 0.0 | 0.0 | 0.00 | 0.00 | 0.00 | 1010.1 | ||
| 20260906031508 | 0 | 0.0 | 0.0 | 0.00 | 0.00 | 0.00 | 1010.3 | ||
| 20260906024544 | 0 | 0.0 | 0.0 | 0.00 | 0.00 | 0.00 | 1010.6 | ||
| 20260906021525 | 0 | 0.0 | 0.0 | 0.00 | 0.00 | 0.00 | 1011.0 | ||
| 20260906020030 | 0 | 0.0 | 0.0 | 0.00 | 0.00 | 0.00 | 1011.1 | ||
| 20260906020006 | 0 | 0.0 | 0.0 | 0.00 | 0.00 | 0.00 | 1011.0 | ||
| 20260906013013 | 0 | 0.0 | 0.0 | 0.00 | 0.00 | 0.00 | 1011.4 | ||
| 20260906010051 | 0 | 0.0 | 0.0 | 0.00 | 0.00 | 0.00 | 1011.8 | ||
| 20260906004555 | 0 | 0.0 | 0.0 | 0.00 | 0.00 | 0.00 | 1012.0 | ||
| 20260905230053 | 0 | 242 | 4.0 | 7.0 | 0.00 | 0.00 | 0.00 | 1013.1 | |
| 20260905224529 | 0 | 243 | 4.0 | 7.0 | 0.00 | 0.00 | 0.00 | 1013.1 | |
| 20260905223020 | 0 | 242 | 4.0 | 8.0 | 0.00 | 0.00 | 0.00 | 1013.2 | |
| 20260905221513 | 0 | 242 | 2.0 | 4.0 | 0.00 | 0.00 | 0.00 | 1013.2 | |
| 20260905220003 | 0 | 242 | 3.0 | 8.0 | 0.00 | 0.00 | 0.00 | 1013.4 | |
| 20260905214519 | 0 | 242 | 4.0 | 7.0 | 0.00 | 0.00 | 0.00 | 1013.5 | |
| 20260905213014 | 0 | 242 | 2.0 | 5.0 | 0.00 | 0.00 | 0.00 | 1013.6 | |
| 20260905211608 | 0 | 242 | 3.0 | 6.0 | 0.00 | 0.00 | 0.00 | 1013.7 | |
| 20260905210028 | 0 | 243 | 3.0 | 6.0 | 0.00 | 0.00 | 0.00 | 1013.6 | |
| 20260905204519 | 0 | 242 | 3.0 | 6.0 | 0.00 | 0.00 | 0.00 | 1013.7 | |
| 20260905203023 | 0 | 242 | 2.0 | 5.0 | 0.00 | 0.00 | 0.00 | 1013.7 | |
| 20260905201512 | 0 | 243 | 3.0 | 6.0 | 0.00 | 0.00 | 0.00 | 1013.7 | |
| 20260905200056 | 0 | 243 | 4.0 | 6.0 | 0.00 | 0.00 | 0.00 | 1013.9 | |
| 20260905194558 | 0 | 243 | 3.0 | 7.0 | 0.00 | 0.00 | 0.00 | 1013.9 | |
| 20260905193042 | 0 | 242 | 3.0 | 8.0 | 0.00 | 0.00 | 0.00 | 1014.1 | |
| 20260905191557 | 0 | 242 | 5.0 | 8.0 | 0.00 | 0.00 | 0.00 | 1014.0 | |
| 20260905184525 | 0 | 242 | 5.0 | 11.0 | 0.00 | 0.00 | 0.00 | 1013.8 | |
| 20260905183009 | 0 | 242 | 2.0 | 7.0 | 0.00 | 0.00 | 0.00 | 1013.9 | |
| 20260905180016 | 0 | 243 | 4.0 | 7.0 | 0.00 | 0.00 | 0.00 | 1013.8 | |
| 20260905174542 | 0 | 242 | 4.0 | 8.0 | 0.00 | 0.00 | 0.00 | 1013.8 | |
| 20260905173007 | 0 | 242 | 3.0 | 9.0 | 0.00 | 0.00 | 0.00 | 1013.8 | |
| 20260905171546 | 0 | 243 | 3.0 | 7.0 | 0.00 | 0.00 | 0.00 | 1014.0 | |
| 20260905170006 | 0 | 242 | 2.0 | 6.0 | 0.00 | 0.00 | 0.00 | 1013.9 | |
| 20260905164547 | 0 | 242 | 0.0 | 7.0 | 0.00 | 0.00 | 0.00 | 1013.9 | |
| 20260905160019 | 0 | 242 | 1.0 | 6.0 | 0.00 | 0.00 | 0.00 | 1014.1 | |
| 20260905154535 | 0 | 242 | 1.0 | 5.0 | 0.00 | 0.00 | 0.00 | 1014.2 | |
| 20260905153100 | 0 | 243 | 0.0 | 7.0 | 0.00 | 0.00 | 0.00 | 1014.1 | |
| 20260905151538 | 0 | 243 | 0.0 | 5.0 | 0.00 | 0.00 | 0.00 | 1014.2 | |
| 20260905151503 | 0 | 242 | 0.0 | 6.0 | 0.00 | 0.00 | 0.00 | 1014.2 | |
| 20260905150055 | 0 | 243 | 0.0 | 4.0 | 0.00 | 0.00 | 0.00 | 1014.0 | |
| 20260905144532 | 0 | 243 | 0.0 | 5.0 | 0.00 | 0.00 | 0.00 | 1014.0 | |
| 20260905143015 | 0 | 241 | 0.0 | 4.0 | 0.00 | 0.00 | 0.00 | 1014.1 | |
| 20260905141512 | 0 | 242 | 0.0 | 3.0 | 0.00 | 0.00 | 0.00 | 1014.1 | |
| 20260905140007 | 0 | 242 | 0.0 | 3.0 | 0.00 | 0.00 | 0.00 | 1014.2 | |
| 20260905134546 | 0 | 241 | 0.0 | 3.0 | 0.00 | 0.00 | 0.00 | 1014.2 | |
| 20260905133020 | 0 | 242 | 0.0 | 0.0 | 0.00 | 0.00 | 0.00 | 1014.3 | |
| 20260905131528 | 0 | 242 | 0.0 | 0.0 | 0.00 | 0.00 | 0.00 | 1014.2 | |
| 20260905130047 | 0 | 242 | 0.0 | 0.0 | 0.00 | 0.00 | 0.00 | 1014.3 | |
| 20260905124535 | 0 | 241 | 0.0 | 0.0 | 0.00 | 0.00 | 0.00 | 1014.3 | |
| 20260905123045 | 0 | 242 | 0.0 | 1.0 | 0.00 | 0.00 | 0.00 | 1014.2 | |
| 20260905121507 | 0 | 240 | 0.0 | 0.0 | 0.00 | 0.00 | 0.00 | 1014.2 | |
| 20260905120003 | 0 | 240 | 0.0 | 0.0 | 0.00 | 0.00 | 0.00 | 1013.8 | |
| 20260905114501 | 0 | 240 | 0.0 | 0.0 | 0.00 | 0.00 | 0.00 | 1013.9 | |
| 20260905113023 | 0 | 240 | 0.0 | 0.0 | 0.00 | 0.00 | 0.00 | 1013.7 | |
| 20260905111543 | 0 | 240 | 0.0 | 0.0 | 0.00 | 0.00 | 0.00 | 1013.7 | |
| 20260905110106 | 0 | 241 | 0.0 | 0.0 | 0.00 | 0.00 | 0.00 | 1013.7 | |
| 20260905104557 | 0 | 241 | 0.0 | 0.0 | 0.00 | 0.00 | 0.00 | 1013.7 | |
| 20260905103048 | 0 | 242 | 0.0 | 0.0 | 0.00 | 0.00 | 0.00 | 1013.9 | |
| 20260905101540 | 0 | 243 | 0.0 | 0.0 | 0.00 | 0.00 | 0.00 | 1013.7 |